Regional Weather Roundup
Issued by NWS Goodland, KS

Home | Current Version | Previous Version | Graphics & Text | Print | Product List | Glossary On
Versions: 1 2 3 4 5 6 7 8 9 10 11 12 13 14 15 16 17 18 19 20 21 22 23 24 25 26 27 28 29 30 31 32 33 34 35 36 37 38 39 40 41 42 43 44 45 46 47 48 49 50
000
ASUS43 KGLD 181008
RWRGLD

GOODLAND FORECAST AREA HOURLY WEATHER ROUNDUP
NATIONAL WEATHER SERVICE GOODLAND KS
400 AM MDT WED OCT 18 2017

...OFFICIAL OBSERVATIONS...

CITY           SKY/WX    TMP DP  RH WIND       PRES   REMARKS
GOODLAND KS    CLOUDY    50  36  58 W12       29.96F
HILL CITY KS   CLEAR     47  41  80 W5        29.94F
IMPERIAL NEB   CLOUDY    45  29  53 SW8       29.94S
MCCOOK NEB     CLOUDY    46  38  73 SW5       29.91F
AKRON CO       CLOUDY    54  21  27 W14       30.00F
BURLINGTON CO  CLOUDY    46  33  60 W10       30.01F
LIMON CO       CLOUDY    33  28  81 N7        30.08F
$$

...UNOFFICIAL OBSERVATIONS...

CITY           SKY/WX    TMP DP  RH WIND       PRES   REMARKS
NORTON KS      CLEAR     45  37  76 SW8       29.91
SHARON SPRINGS   N/A     46  37  72 CALM        N/A
TRENTON NEB      N/A     49  32  52 W6          N/A
KIT CARSON CO    N/A     45  31  58 CALM        N/A
YUMA CO        FAIR      45  28  53 W7        29.97F
$$




USA.gov is the U.S. government's official web portal to all federal, state and local government web resources and services.